Voltar ao catálogo

OPS 4682 DEB

AtivoPO
NORAD 38438·DEBRIS·🇺🇸 United States

Lançado Apr 3, 1965 de Vandenberg Space Force Base

Loading…

Próximas Passagens (próximas 24 horas)

TLE

AtualizadoSource: Space-Track

Época: Sep 14, 2026, 06:56 UTC

1 38438U 65027ET  26257.28907807  .00000259  00000-0  92123-3 0  9995
2 38438  90.2470   7.5856 0029593  42.5767 317.7638 12.93149022672553

Acompanhe OPS 4682 DEB em tempo real com AllMySat

Download on the App Store